Tracking 17921 objects as of 16-January-2017
HD Live streaming from Space Station
objects crossing your sky now

COSMOS 2251 DEB

Track COSMOS 2251 DEB now!
10-day predictions


NORAD ID: 34544
Int'l Code: 1993-036UE
Perigee: 779.5 km
Apogee: 1,370.4 km
Inclination: 73.9 °
Period: 106.6 minutes
Semi major axis: 7445 km
RCS: 0.0085 m2 (small)
Launch date: June 16, 1993
Source: Commonwealth of Independent States (former USSR) (CIS)
Launch site: PLESETSK MISSILE AND SPACE COMPLEX (PKMTR)

Note: This is SATELLITE DEBRIS
Your satellite tracking list
Your tracking list is empty





NASA's NSSDC Master Catalog

Two Line Element Set (TLE):
1 34544U 93036UE  17015.88590953 +.00000076 +00000-0 +94399-4 0  9993
2 34544 073.9183 047.5326 0396800 316.2730 105.0834 13.51200193389149
Source of the keplerian elements: AFSPC